sat.trackr.live / text

‹ back to catalog

STARLINK-1802

NORAD 46702 · 2020-073AJ

PAYLOAD ACTIVE UNKNOWN

§ Identity

Operator
Country
US
Launch date
2020-10-18
Launch site
AFETR
Launch vehicle
Mass (kg)
RCS (m²)

Purposes: comms

External: N2YO · Heavens-Above · Gunter

§ Orbital elements

Epoch: 2026-09-04T03:34:56.000928Z

Period
93.09 min
Inclination
53.1518°
Eccentricity
0.0001877
Mean motion
15.46844064 rev/d
Perigee alt
424.7 km
Apogee alt
427.2 km
Semi-major
6,804.1 km
B*
1.0359e-3
RAAN
98.1501°
Arg perigee
147.2537°
Mean anomaly
212.8587°
Rev number
32,494

§ Raw data

STARLINK-18021 46702U 20073AJ  26247.14925927  .00052789  00000+0  10359-2 0  99912 46702  53.1518  98.1501 0001877 147.2537 212.8587 15.46844064324947

JSON: /api/v1/satellites/46702 · /tle

For live sub-satellite position, see the globe view (requires WebGL).

§ Visibility from observer

Set your observer location to see the next 7 days of passes ≥ 10°. The values pass through the URL so the page stays shareable.

No JS? Fill the form by hand. The geolocation button needs JavaScript.